Banks Lake Weather Center

Moon Phase Calendar



Banks Lake Water Level
Online Cameras

 


      

Current Conditions in Coulee Dam
4/12/2024 8:02:16 PM

55°F
Feels Like 52
Clouds
Humidity
56%
Pressure
29.74"
Wind
4.5 mph (WNW)
Dew Point
39°F
UV Index
0/10 (Low)
Visibility
6 mi

Hourly Forecast

Date & Time Fri, Apr 12
8:00 PM
Fri, Apr 12
9:00 PM
Fri, Apr 12
10:00 PM
Fri, Apr 12
11:00 PM
Sat, Apr 13
12:00 AM
Sat, Apr 13
1:00 AM
Sat, Apr 13
2:00 AM
Sat, Apr 13
3:00 AM
Sat, Apr 13
4:00 AM
Sat, Apr 13
5:00 AM
Sat, Apr 13
6:00 AM
Sat, Apr 13
7:00 AM
Sat, Apr 13
8:00 AM
Sat, Apr 13
9:00 AM
Sat, Apr 13
10:00 AM
Sat, Apr 13
11:00 AM
Sat, Apr 13
12:00 PM
Sat, Apr 13
1:00 PM
Sat, Apr 13
2:00 PM
Sat, Apr 13
3:00 PM
Sat, Apr 13
4:00 PM
Sat, Apr 13
5:00 PM
Sat, Apr 13
6:00 PM
Sat, Apr 13
7:00 PM
Sat, Apr 13
8:00 PM
Sat, Apr 13
9:00 PM
Sat, Apr 13
10:00 PM
Sat, Apr 13
11:00 PM
Sun, Apr 14
12:00 AM
Sun, Apr 14
1:00 AM
Sun, Apr 14
2:00 AM
Sun, Apr 14
3:00 AM
Sun, Apr 14
4:00 AM
Sun, Apr 14
5:00 AM
Sun, Apr 14
6:00 AM
Sun, Apr 14
7:00 AM
Sun, Apr 14
8:00 AM
Sun, Apr 14
9:00 AM
Sun, Apr 14
10:00 AM
Sun, Apr 14
11:00 AM
Sun, Apr 14
12:00 PM
Sun, Apr 14
1:00 PM
Sun, Apr 14
2:00 PM
Sun, Apr 14
3:00 PM
Sun, Apr 14
4:00 PM
Sun, Apr 14
5:00 PM
Sun, Apr 14
6:00 PM
Sun, Apr 14
7:00 PM
Condition
Clouds

Clouds

Clouds

Clouds

Clouds

Clouds

Clouds

Clouds

Clouds

Clouds

Clear

Clear

Clear

Clear

Clear

Clear

Clouds

Clouds

Clouds

Clouds

Clouds

Clouds

Clouds

Clouds

Clouds

Clouds

Clouds

Clouds

Clouds

Clouds

Clouds

Clouds

Clouds

Clouds

Clear

Clear

Clouds

Clouds

Clouds

Clouds

Clouds

Clouds

Clouds

Clouds

Clouds

Clouds

Clouds

Clouds
Temperature 55°F54°F53°F52°F51°F50°F48°F48°F47°F47°F47°F48°F51°F54°F57°F59°F61°F62°F64°F65°F65°F65°F65°F62°F58°F57°F56°F54°F54°F54°F53°F51°F51°F51°F49°F50°F54°F57°F59°F62°F64°F66°F68°F69°F70°F70°F69°F65°F
Feels Like 52°F52°F51°F50°F48°F49°F48°F48°F47°F47°F45°F46°F49°F52°F55°F57°F59°F61°F62°F63°F63°F63°F63°F60°F56°F55°F54°F53°F52°F52°F51°F50°F49°F49°F47°F48°F52°F55°F57°F60°F63°F65°F66°F68°F68°F69°F68°F63°F
Cloudiness 100%100%99%99%93%61%43%35%30%27%9%10%9%8%9%10%84%93%91%84%88%90%100%99%98%99%98%84%57%27%19%16%13%11%4%10%25%45%52%54%76%51%67%60%60%56%100%90%
Visibility 6 mi6 mi6 mi6 mi6 mi6 mi6 mi6 mi6 mi6 mi6 mi6 mi6 mi6 mi6 mi6 mi6 mi6 mi6 mi6 mi6 mi6 mi6 mi6 mi6 mi6 mi6 mi6 mi6 mi6 mi6 mi6 mi6 mi6 mi6 mi6 mi6 mi6 mi6 mi6 mi6 mi6 mi6 mi6 mi6 mi6 mi6 mi6 mi
Precipitation 0%0%0%0%0%0%0%0%0%0%0%0%0%0%0%0%0%0%0%0%0%0%0%0%0%0%0%0%0%0%0%0%0%0%0%0%0%0%0%0%0%0%0%0%0%0%0%0%
Humidity 56%57%58%59%62%62%65%65%66%67%67%69%63%57%53%50%49%47%46%45%44%44%45%57%60%63%65%68%71%69%71%74%71%71%72%73%65%60%56%51%46%42%38%36%35%33%37%46%
Dew Point 39°F39°F39°F38°F38°F36°F36°F35°F35°F35°F35°F37°F38°F38°F39°F40°F40°F41°F41°F41°F41°F41°F42°F45°F43°F43°F43°F42°F43°F42°F42°F42°F41°F40°F39°F40°F41°F42°F42°F42°F42°F41°F40°F40°F40°F39°F41°F43°F
Pressure 29.74"29.74"29.74"29.74"29.77"29.77"29.77"29.77"29.8"29.8"29.83"29.85"29.85"29.85"29.85"29.85"29.83"29.83"29.83"29.8"29.8"29.77"29.77"29.77"29.77"29.8"29.8"29.77"29.77"29.77"29.77"29.77"29.8"29.8"29.8"29.83"29.83"29.83"29.83"29.8"29.8"29.77"29.77"29.74"29.74"29.71"29.71"29.71"
Wind Speed 4.5 mph3.6 mph3.3 mph2.6 mph1.7 mph3 mph1.6 mph0.8 mph1.9 mph2.7 mph4.7 mph5 mph3.6 mph2.4 mph0.9 mph1.2 mph3.2 mph3.2 mph3.4 mph3.2 mph3.5 mph3 mph2.6 mph2.5 mph2.6 mph2.6 mph3.2 mph2.8 mph2.2 mph4.3 mph4.2 mph3.2 mph4.7 mph5.7 mph5.5 mph4.5 mph4.6 mph5.8 mph5.1 mph5 mph4.6 mph5.5 mph6.3 mph7.5 mph8.2 mph7.4 mph6.9 mph6.2 mph
Wind
Direction
302°
WNW
278°
W
287°
WNW
288°
WNW
297°
WNW
330°
NNW
341°
NNW
29°
NNE
359°
N
350°
N
357°
N

N
12°
NNE
18°
NNE
21°
NNE
213°
SSW
207°
SSW
223°
SW
223°
SW
230°
SW
234°
SW
225°
SW
194°
SSW
179°
S
159°
SSE
182°
S
220°
SW
225°
SW
301°
WNW
336°
NNW
338°
NNW
343°
NNW
344°
NNW
346°
NNW
337°
NNW
336°
NNW
336°
NNW
333°
NNW
332°
NNW
323°
NW
305°
NW
281°
W
258°
WSW
235°
SW
234°
SW
235°
SW
221°
SW
234°
SW

Daily Forecast

Date High Low Precip. Humidity
Today
Apr 12

Clouds
60 °F
44 °F
0%
57%
Saturday
Apr 13

Clouds
65 °F
47 °F
0%
49%
Sunday
Apr 14

Clouds
70 °F
49 °F
0%
46%
Monday
Apr 15

Clouds
61 °F
46 °F
0%
37%
Tuesday
Apr 16

Rain
54 °F
44 °F
20%
41%
Wednesday
Apr 17

Clear
56 °F
40 °F
0%
38%
Thursday
Apr 18

Clear
59 °F
40 °F
0%
29%
Friday
Apr 19

Clear
62 °F
42 °F
0%
33%
Saturday
Apr 20

Clouds
67 °F
47 °F
0%
40%
Sunday
Apr 21

Clouds
70 °F
51 °F
0%
43%
Monday
Apr 22

Clouds
67 °F
50 °F
0%
40%
Tuesday
Apr 23

Rain
67 °F
48 °F
20%
47%
Wednesday
Apr 24

Rain
61 °F
42 °F
20%
37%
Thursday
Apr 25

Clear
64 °F
42 °F
0%
41%
Friday
Apr 26

Clouds
69 °F
49 °F
0%
42%
Saturday
Apr 27

Clouds
69 °F
51 °F
0%
45%

Temperature 8-14 Day Outlook



Precipitation 8-14 Day Outlook




Quick Links
Banks Lake News
Banks Lake Photos
Banks Lake Videos




About Us
Contact Us
Site Map
Search Site
Advertise With Us
   
Banks.USLakes.info
THE BANKS LAKE WEBSITE

Copyright 2024, Lakes Online
Privacy    |    Legal